EW4784 Weather Reports


Display with metric or nautical units.
time (UTC)temp
F
wind
direction
speed
MPH
gust
MPH
rain 1hr
in
rain 24hr
in
rain mn
in
humidity
%
barometer
mb
20260905123747 67 336 0.0 0.0 0.00 0.00 0.00 90 1016.1
20260905123246 67 157 0.0 0.0 0.00 0.00 0.00 90 1016.1
20260905122745 67 357 0.0 5.0 0.00 0.00 0.00 90 1016.1
20260905122244 67 82 1.0 6.0 0.00 0.00 0.00 90 1016.0
20260905121743 67 124 0.0 3.0 0.00 0.00 0.00 91 1016.0
20260905121304 67 98 2.0 12.0 0.00 0.00 0.00 91 1015.9
20260905120741 67 92 1.0 8.0 0.00 0.00 0.00 91 1015.8
20260905120240 67 114 1.0 9.0 0.00 0.00 0.00 91 1015.8
20260905115801 67 128 2.0 11.0 0.00 0.00 0.00 91 1015.8
20260905115238 67 280 0.0 0.0 0.00 0.00 0.00 91 1015.8
20260905114737 67 108 1.0 5.0 0.00 0.00 0.00 91 1015.8
20260905114236 67 70 0.0 0.0 0.00 0.00 0.00 91 1015.7
20260905113756 67 78 0.0 3.0 0.00 0.00 0.00 91 1015.6
20260905113255 67 120 1.0 8.0 0.00 0.00 0.00 91 1015.5
20260905112754 67 137 1.0 5.0 0.00 0.00 0.00 91 1015.5
20260905112234 67 101 1.0 8.0 0.00 0.00 0.00 91 1015.4
20260905111731 67 120 1.0 9.0 0.00 0.00 0.00 91 1015.4
20260905111230 67 129 1.0 8.0 0.00 0.00 0.00 91 1015.5
20260905110730 67 134 1.0 8.0 0.00 0.00 0.00 91 1015.4
20260905110249 67 125 2.0 15.0 0.00 0.00 0.00 91 1015.4
20260905105726 67 98 0.0 6.0 0.00 0.00 0.00 91 1015.4
20260905105225 67 158 0.0 4.0 0.00 0.00 0.00 91 1015.3
20260905104725 67 131 0.0 4.0 0.00 0.00 0.00 92 1015.4
20260905104225 67 110 1.0 4.0 0.00 0.00 0.00 92 1015.4
20260905103744 67 119 1.0 11.0 0.00 0.00 0.00 92 1015.4
20260905103242 67 33 0.0 5.0 0.00 0.00 0.00 92 1015.5
20260905102720 67 130 1.0 7.0 0.00 0.00 0.00 93 1015.5
20260905102240 67 113 2.0 14.0 0.00 0.00 0.00 93 1015.5
20260905101740 67 110 1.0 11.0 0.00 0.00 0.00 94 1015.4
20260905101217 67 62 1.0 9.0 0.00 0.00 0.00 94 1015.2
20260905100717 67 121 2.0 11.0 0.00 0.00 0.00 94 1015.2
20260905100216 67 123 1.0 10.0 0.00 0.00 0.00 94 1015.3
20260905095715 67 136 3.0 10.0 0.00 0.00 0.00 94 1015.3
20260905095213 67 96 1.0 7.0 0.00 0.00 0.00 94 1015.4
20260905094713 67 141 1.0 7.0 0.00 0.00 0.00 94 1015.4
20260905094232 67 99 1.0 13.0 0.00 0.00 0.00 94 1015.4
20260905093732 67 118 1.0 10.0 0.00 0.00 0.00 94 1015.3
20260905093210 67 106 2.0 12.0 0.00 0.00 0.00 94 1015.2
20260905092709 67 4 0.0 2.0 0.00 0.00 0.00 94 1015.1
20260905092207 67 96 0.0 4.0 0.00 0.00 0.00 95 1015.2
20260905091706 68 143 0.0 2.0 0.00 0.00 0.00 95 1015.2
20260905091206 68 75 0.0 0.0 0.00 0.00 0.00 95 1015.4
20260905090704 68 75 0.0 0.0 0.00 0.00 0.00 95 1015.4
20260905090203 67 75 0.0 0.0 0.00 0.00 0.00 95 1015.4
20260905085702 67 120 0.0 4.0 0.00 0.00 0.00 95 1015.2
20260905085202 68 126 1.0 5.0 0.00 0.00 0.00 95 1015.1
20260905084701 68 357 0.0 2.0 0.00 0.00 0.00 95 1015.1
20260905084159 67 347 0.0 5.0 0.00 0.00 0.00 95 1015.0
20260905083659 67 247 0.0 3.0 0.00 0.00 0.00 95 1014.8
20260905083218 67 147 1.0 8.0 0.00 0.00 0.00 95 1014.7
20260905082717 67 159 0.0 4.0 0.00 0.00 0.00 96 1014.8
20260905082155 67 0 0.0 0.0 0.00 0.00 0.00 96 1014.8
20260905081655 67 153 1.0 7.0 0.00 0.00 0.00 96 1014.7
20260905081153 67 127 1.0 6.0 0.00 0.00 0.00 96 1014.6
20260905080653 68 108 0.0 6.0 0.00 0.00 0.00 96 1014.6
20260905080152 68 65 0.0 0.0 0.00 0.00 0.00 96 1014.7
20260905075711 68 135 0.0 5.0 0.00 0.00 0.00 96 1014.9
20260905075149 68 14 0.0 1.0 0.00 0.00 0.00 96 1014.9
20260905074649 68 15 0.0 4.0 0.00 0.00 0.00 96 1014.9
20260905074147 68 160 0.0 2.0 0.00 0.00 0.00 96 1015.0
20260905073646 68 147 0.0 0.0 0.00 0.00 0.00 96 1015.0
20260905073207 68 126 0.0 0.0 0.00 0.00 0.00 96 1015.0
20260905072705 68 6 0.0 1.0 0.00 0.00 0.00 96 1015.2
20260905072144 68 126 1.0 7.0 0.00 0.00 0.00 97 1015.2
20260905071643 68 149 2.0 12.0 0.00 0.00 0.00 97 1015.0
20260905071141 68 119 0.0 4.0 0.00 0.00 0.00 97 1014.9
20260905070640 68 111 0.0 0.0 0.00 0.00 0.00 97 1014.7
20260905070139 68 61 0.0 0.0 0.00 0.00 0.00 97 1014.7
20260905065638 68 101 0.0 3.0 0.00 0.00 0.00 97 1014.6
20260905065137 68 147 1.0 8.0 0.00 0.00 0.00 97 1014.5
20260905064636 68 135 0.0 3.0 0.00 0.00 0.00 97 1014.4
20260905064135 68 105 0.0 0.0 0.00 0.00 0.00 97 1014.5
20260905063634 68 105 0.0 0.0 0.00 0.00 0.00 97 1014.5
20260905063133 68 75 0.0 0.0 0.00 0.00 0.00 97 1014.6
20260905062633 68 178 0.0 3.0 0.00 0.00 0.00 97 1014.6
20260905062132 68 132 1.0 5.0 0.00 0.00 0.00 97 1014.5
20260905061631 68 17 0.0 0.0 0.00 0.00 0.00 97 1014.6
20260905061150 68 75 0.0 1.0 0.00 0.00 0.00 97 1014.6
20260905060649 68 90 0.0 0.0 0.00 0.00 0.00 97 1014.9
20260905060148 68 87 0.0 0.0 0.00 0.00 0.00 97 1015.0
20260905055626 68 36 0.0 0.0 0.00 0.00 0.00 97 1015.0
20260905055124 69 38 0.0 0.0 0.00 0.00 0.00 97 1015.0
20260905054623 69 165 0.0 5.0 0.00 0.00 0.00 97 1015.0
20260905054122 69 184 0.0 0.0 0.00 0.00 0.00 97 1015.1
20260905053622 69 184 0.0 0.0 0.00 0.00 0.00 97 1015.1
20260905053121 69 152 0.0 4.0 0.00 0.00 0.00 97 1015.2
20260905052620 69 189 1.0 5.0 0.00 0.00 0.00 97 1015.2
20260905052119 69 137 1.0 8.0 0.00 0.00 0.00 97 1015.2
20260905051619 69 343 0.0 4.0 0.00 0.00 0.00 97 1015.1
20260905051117 69 136 0.0 0.0 0.00 0.00 0.00 97 1015.1
20260905050616 69 29 0.0 1.0 0.00 0.00 0.00 97 1015.1
20260905050115 69 356 0.0 0.0 0.00 0.00 0.00 96 1015.0
20260905045614 69 74 0.0 0.0 0.00 0.00 0.00 96 1015.0
20260905045112 70 101 1.0 5.0 0.00 0.00 0.00 96 1014.9
20260905044632 70 144 0.0 5.0 0.00 0.00 0.00 97 1015.0
20260905044110 70 171 0.0 0.0 0.00 0.00 0.00 97 1015.1
20260905043610 70 171 0.0 0.0 0.00 0.00 0.00 97 1015.2
20260905043109 70 171 0.0 0.0 0.00 0.00 0.00 97 1015.3
20260905042629 70 82 0.0 0.0 0.00 0.00 0.00 97 1015.3
20260905042107 70 81 0.0 9.0 0.00 0.00 0.00 97 1015.2
20260905041606 70 187 0.0 2.0 0.00 0.00 0.00 97 1015.2
20260905041105 70 105 0.0 3.0 0.00 0.00 0.00 97 1015.2
20260905040604 70 40 0.0 0.0 0.00 0.00 0.00 97 1015.2
20260905035605 70 110 1.0 7.0 0.00 0.00 0.39 97 1015.3
20260905035102 70 214 0.0 0.0 0.00 0.00 0.39 97 1015.3
20260905034600 70 148 0.0 0.0 0.00 0.00 0.39 97 1015.3
20260905034059 71 137 0.0 0.0 0.00 0.00 0.39 97 1015.3
20260905033559 71 117 0.0 3.0 0.00 0.00 0.39 97 1015.5
20260905033056 71 223 0.0 0.0 0.00 0.00 0.39 97 1015.6
20260905032555 71 223 0.0 0.0 0.00 0.00 0.39 97 1015.7
20260905032055 71 223 0.0 0.0 0.00 0.00 0.39 97 1015.8
20260905031554 71 223 0.0 0.0 0.00 0.00 0.39 97 1015.8
20260905031053 71 223 0.0 0.0 0.00 0.00 0.39 97 1015.8
20260905030612 71 223 0.0 0.0 0.00 0.00 0.39 97 1015.8
20260905030051 71 223 0.0 0.0 0.00 0.00 0.39 97 1015.9
20260905025549 71 223 0.0 0.0 0.00 0.00 0.39 97 1015.9
20260905025048 71 223 0.0 0.0 0.00 0.00 0.39 97 1016.0
20260905024547 71 230 0.0 2.0 0.00 0.00 0.39 97 1015.9
20260905024047 72 63 0.0 0.0 0.00 0.00 0.39 97 1015.7
20260905023545 72 124 0.0 4.0 0.00 0.00 0.39 97 1015.7
20260905023045 72 114 0.0 4.0 0.00 0.00 0.39 98 1015.6
20260905022543 72 264 0.0 5.0 0.00 0.00 0.39 98 1015.5
20260905022042 72 0 0.0 0.0 0.00 0.00 0.39 98 1015.5
20260905021602 72 0 0.0 0.0 0.00 0.00 0.39 98 1015.4
20260905021040 72 0 0.0 0.0 0.00 0.00 0.39 98 1015.4
20260905020540 72 0 0.0 0.0 0.00 0.00 0.39 98 1015.4
20260905020039 72 0 0.0 0.0 0.00 0.00 0.39 97 1015.4
20260905015537 72 0 0.0 0.0 0.00 0.00 0.39 97 1015.6
20260905015037 72 0 0.0 0.0 0.00 0.00 0.39 97 1015.6
20260905014536 72 0 0.0 0.0 0.00 0.00 0.39 97 1015.6
20260905014055 72 0 0.0 0.0 0.00 0.00 0.39 97 1015.6
20260905013534 72 0 0.0 0.0 0.00 0.00 0.39 97 1015.5
20260904235154 75 0 0.0 0.0 0.00 0.39 0.39 91 1014.9
20260904234653 75 0 0.0 0.0 0.00 0.39 0.39 90 1014.9
20260904234212 75 0 0.0 0.0 0.00 0.39 0.39 90 1014.9
20260904233650 75 0 0.0 0.0 0.00 0.39 0.39 89 1014.9
20260904233149 75 0 0.0 0.0 0.00 0.39 0.39 89 1014.8
20260904232648 75 0 0.0 0.0 0.00 0.39 0.39 88 1014.7
20260904232207 76 7 0.0 4.0 0.00 0.39 0.39 88 1012.6
20260904231706 76 5 1.0 5.0 0.00 0.39 0.39 88 1014.4
20260904231145 76 17 1.0 7.0 0.00 0.39 0.39 87 1014.4
20260904230643 76 13 0.0 3.0 0.00 0.39 0.39 87 1014.4
20260904230203 76 350 1.0 6.0 0.00 0.39 0.39 86 1014.4
20260904225642 76 356 1.0 4.0 0.00 0.39 0.39 87 1014.3
20260904225141 76 2 2.0 6.0 0.00 0.39 0.39 87 1014.3
20260904224639 76 342 0.0 3.0 0.00 0.39 0.39 87 1014.3
20260904224139 76 328 1.0 4.0 0.00 0.39 0.39 88 1014.3
20260904223637 76 2 0.0 1.0 0.00 0.39 0.39 88 1012.5
20260904223137 76 0 0.0 0.0 0.00 0.39 0.39 89 1010.6
20260904222636 76 0 0.0 0.0 0.00 0.39 0.39 90 1014.2
20260904222135 76 348 1.0 7.0 0.00 0.39 0.39 90 1014.2
20260904221634 75 350 2.0 8.0 0.00 0.39 0.39 91 1014.2
20260904221153 75 353 1.0 5.0 0.00 0.39 0.39 92 1014.1
20260904220632 75 345 2.0 6.0 0.00 0.39 0.39 92 1014.1
20260904220131 75 9 2.0 10.0 0.00 0.39 0.39 93 1014.1
20260904215629 75 9 3.0 6.0 0.00 0.39 0.39 93 1014.1
20260904215150 75 6 2.0 7.0 0.00 0.39 0.39 94 1014.1
20260904214627 75 5 1.0 3.0 0.00 0.39 0.39 95 1014.2
20260904214147 75 6 4.0 8.0 0.00 0.39 0.39 95 1012.4
20260904213647 74 9 3.0 7.0 0.00 0.39 0.39 95 1014.2
20260904213124 74 335 4.0 9.0 0.00 0.39 0.39 96 1011.6
20260904212624 74 1 1.0 8.0 0.00 0.39 0.39 96 1014.0
20260904212122 74 320 3.0 8.0 0.00 0.39 0.39 96 1013.9
20260904211621 74 337 1.0 4.0 0.00 0.39 0.39 96 1013.7
20260904211120 74 11 1.0 7.0 0.00 0.39 0.39 96 1013.7
20260904210620 74 351 4.0 8.0 0.00 0.39 0.39 96 1013.8
20260904210118 74 312 5.0 13.0 0.00 0.39 0.39 96 1013.8
20260904205617 74 309 3.0 10.0 0.00 0.39 0.39 96 1013.8
20260904205116 74 304 4.0 13.0 0.00 0.39 0.39 96 1013.1
20260904204615 74 314 3.0 10.0 0.00 0.39 0.39 96 1013.7
20260904204114 74 308 4.0 12.0 0.00 0.39 0.39 96 1012.6
20260904203634 74 323 5.0 17.0 0.00 0.39 0.39 97 1013.8
20260904203112 74 308 6.0 12.0 0.00 0.39 0.39 96 1013.8
20260904202611 74 311 6.0 14.0 0.00 0.39 0.39 96 1013.7
20260904202110 74 332 6.0 10.0 0.00 0.39 0.39 96 1013.7
20260904201609 74 354 7.0 11.0 0.00 0.39 0.39 97 1013.7
20260904201108 74 331 4.0 10.0 0.00 0.39 0.39 97 1013.8
20260904200628 74 312 4.0 12.0 0.00 0.39 0.39 96 1013.9
20260904200106 74 345 3.0 7.0 0.00 0.39 0.39 97 1013.1
20260904195605 74 301 2.0 10.0 0.00 0.39 0.39 97 1014.1
20260904195125 74 293 3.0 7.0 0.00 0.39 0.39 97 1014.1
20260904194603 73 287 5.0 14.0 0.00 0.39 0.39 97 1014.2
20260904194124 74 329 4.0 11.0 0.00 0.39 0.39 98 1014.2
20260904193601 73 335 2.0 8.0 0.00 0.39 0.39 98 1014.3
20260904193059 73 328 4.0 8.0 0.00 0.39 0.39 98 1014.3
20260904192620 73 310 4.0 9.0 0.00 0.39 0.39 98 1014.5
20260904192058 73 302 3.0 12.0 0.00 0.39 0.39 98 1014.5
20260904191557 73 327 3.0 12.0 0.00 0.39 0.39 98 1014.5
20260904191117 73 289 2.0 8.0 0.00 0.39 0.39 99 1013.9
20260904190555 72 272 0.0 5.0 0.00 0.39 0.39 99 1014.7
20260904190054 72 214 0.0 0.0 0.00 0.39 0.39 99 1014.8
20260904185553 72 244 1.0 6.0 0.00 0.39 0.39 99 1014.8
20260904185052 72 163 0.0 3.0 0.00 0.39 0.39 99 1014.9
20260904184552 72 304 0.0 3.0 0.00 0.39 0.39 99 1014.9
20260904184049 72 12 0.0 4.0 0.00 0.39 0.39 99 1015.0
20260904183549 72 181 0.0 2.0 0.00 0.39 0.39 99 1015.0
20260904183048 72 271 1.0 6.0 0.00 0.39 0.39 99 1015.1
20260904182547 72 294 1.0 8.0 0.00 0.39 0.39 99 1015.2
20260904182046 72 277 2.0 7.0 0.00 0.39 0.39 99 1015.3
20260904181545 72 302 2.0 8.0 0.00 0.39 0.39 99 1015.3
20260904181044 72 291 2.0 7.0 0.00 0.39 0.39 99 1015.3
20260904180543 72 310 3.0 7.0 0.00 0.39 0.39 99 1015.3
20260904175541 71 313 2.0 11.0 0.00 0.39 0.39 99 1015.4
20260904175040 71 257 0.0 3.0 0.00 0.39 0.39 99 1015.5
20260904174538 71 254 0.0 5.0 0.00 0.39 0.39 99 1015.4
20260904174038 71 179 0.0 3.0 0.00 0.39 0.39 99 1015.4
20260904173538 72 193 2.0 8.0 0.00 0.39 0.39 99 1015.4
20260904173036 71 185 0.0 3.0 0.00 0.39 0.39 100 1015.5
20260904172535 71 270 1.0 8.0 0.00 0.39 0.39 100 1015.7
20260904172033 71 283 0.0 0.0 0.00 0.39 0.39 100 1015.7
20260904171532 71 269 1.0 5.0 0.00 0.39 0.39 100 1015.7
20260904171031 71 255 0.0 0.0 0.00 0.39 0.39 100 1015.8
20260904170530 71 262 0.0 0.0 0.00 0.39 0.39 100 1015.6
20260904170030 71 269 0.0 2.0 0.00 0.39 0.39 100 1015.6
20260904165528 71 274 0.0 0.0 0.01 0.39 0.39 100 1015.5
20260904165048 71 299 0.0 2.0 0.02 0.39 0.39 100 1015.6
20260904164527 70 323 0.0 3.0 0.02 0.39 0.39 100 1015.8
20260904164046 70 319 0.0 1.0 0.03 0.39 0.39 100 1016.0
20260904163525 70 320 1.0 4.0 0.04 0.39 0.39 100 1016.0
20260904163044 70 40 0.0 0.0 0.04 0.39 0.39 100 1015.8
20260904162522 70 39 0.0 0.0 0.04 0.39 0.39 100 1015.7
20260904162042 70 43 0.0 3.0 0.05 0.39 0.39 100 1015.8
20260904161520 69 81 1.0 3.0 0.06 0.39 0.39 100 1015.6
20260904161019 69 176 2.0 9.0 0.06 0.39 0.39 100 1015.6
20260904160539 69 180 1.0 8.0 0.07 0.39 0.39 100 1015.9
20260904160017 69 22 0.0 0.0 0.07 0.39 0.39 100 1016.5
20260904155537 69 20 0.0 0.0 0.06 0.38 0.38 100 1016.8
20260904155015 69 19 0.0 0.0 0.05 0.37 0.37 100 1016.7
20260904154514 69 19 0.0 0.0 0.05 0.37 0.37 100 1016.8
20260904154013 69 19 0.0 0.0 0.04 0.36 0.36 100 1017.0
20260904153512 69 19 0.0 0.0 0.04 0.35 0.35 100 1017.2
20260904153012 69 19 0.0 0.0 0.05 0.35 0.35 100 1017.4
20260904152511 69 18 0.0 3.0 0.05 0.35 0.35 100 1017.5
20260904152031 69 331 1.0 5.0 0.05 0.34 0.34 100 1017.5
20260904151508 69 229 0.0 0.0 0.06 0.33 0.33 100 1017.4
20260904151008 69 262 0.0 1.0 0.07 0.33 0.33 100 1017.4
20260904150506 68 282 0.0 3.0 0.07 0.32 0.32 100 1017.4
20260904150006 68 306 0.0 0.0 0.09 0.32 0.32 100 1017.3
20260904145504 69 318 0.0 2.0 0.10 0.32 0.32 100 1017.3
20260904145004 68 308 0.0 3.0 0.12 0.32 0.32 100 1017.2
20260904144524 68 311 1.0 5.0 0.13 0.32 0.32 100 1017.1
20260904144001 68 224 0.0 3.0 0.13 0.31 0.31 100 1017.0
20260904143500 68 296 0.0 4.0 0.15 0.31 0.31 100 1017.1
20260904143000 68 252 1.0 11.0 0.15 0.30 0.30 100 1017.3
20260904142458 68 281 3.0 12.0 0.15 0.30 0.30 100 1017.5
20260904141958 68 278 3.0 14.0 0.15 0.29 0.29 100 1017.6
20260904141518 68 270 2.0 11.0 0.13 0.27 0.27 100 1017.6
20260904140955 68 273 3.0 10.0 0.13 0.26 0.26 100 1017.6
20260904140454 68 266 1.0 8.0 0.13 0.25 0.25 100 1017.7
20260904135954 68 282 4.0 11.0 0.12 0.23 0.23 100 1017.5
20260904135452 68 324 1.0 7.0 0.11 0.21 0.21 100 1017.4
20260904134951 68 6 0.0 0.0 0.13 0.19 0.19 100 1017.2
20260904134450 68 34 0.0 0.0 0.13 0.17 0.17 100 1017.2
20260904133949 68 34 0.0 3.0 0.15 0.17 0.17 100 1017.4
20260904133448 68 337 1.0 3.0 0.13 0.16 0.16 100 1017.6
20260904132948 68 268 0.0 6.0 0.13 0.15 0.15 100 1017.6
20260904132446 68 197 0.0 1.0 0.13 0.15 0.15 100 1017.4
20260904131946 68 153 0.0 4.0 0.12 0.13 0.13 100 1017.0
20260904131444 68 155 1.0 6.0 0.12 0.12 0.12 100 1016.7
20260904131004 68 178 3.0 10.0 0.11 0.11 0.11 100 1016.5
20260904130443 68 168 2.0 5.0 0.10 0.10 0.10 100 1016.8
20260904125941 68 175 0.0 1.0 0.10 0.10 0.10 100 1017.0
20260904125440 68 223 0.0 1.0 0.09 0.09 0.09 100 1017.1
20260904124939 68 184 0.0 2.0 0.05 0.05 0.05 100 1016.9
20260904124438 68 186 1.0 4.0 0.03 0.03 0.03 100 1016.8